Wind_Speed
9 8 8 8 6 5 4 4 4 3 4 5 6 6 7 7 8 8 9 9 8 8 8 8 8 8 8 9 9 10 10 10 10 11 12 12 13 13 13 13 14 15 16
8 9 8 7 5 5 4 4 4 4 4 5 5 6 6 6 7 7 8 8 8 9 8 8 9 9 9 9 10 10 11 11 10 11 11 11 12 12 13 14 14 14 15
8 9 8 7 6 5 5 4 4 4 4 5 5 5 5 6 6 7 8 8 9 9 9 9 9 9 9 10 10 10 11 11 11 12 12 12 12 12 11 12 13 13 13
8 9 8 7 6 6 6 5 5 5 5 5 6 6 7 7 6 6 7 8 8 9 9 10 9 9 9 10 9 9 10 11 11 11 11 11 11 11 10 11 13 13 13
9 9 7 7 7 7 6 6 6 5 5 5 6 7 8 8 8 8 8 8 8 8 8 8 8 9 9 9 9 10 10 10 11 12 11 11 11 11 11 11 12 13 13
9 8 8 8 8 7 7 6 6 5 5 5 6 6 7 8 8 8 8 8 8 8 8 8 8 8 9 9 9 10 10 10 11 12 12 12 11 12 12 12 13 14 14
10 9 8 8 8 8 7 6 6 6 6 6 7 7 7 8 9 9 9 9 8 9 9 9 9 9 9 9 9 10 10 11 11 12 12 12 12 13 13 13 13 14 15
10 9 9 9 8 8 7 7 6 7 7 7 8 7 7 8 9 9 9 9 9 9 9 9 10 9 9 9 9 9 10 10 11 11 12 12 11 12 13 13 14 14 15
10 9 9 9 8 8 8 7 7 7 7 8 8 8 8 8 9 9 9 10 10 10 10 11 10 10 10 10 10 10 10 11 11 11 12 12 12 12 13 14 14 14 14
11 10 9 9 9 9 8 8 8 8 8 8 9 8 8 8 8 9 9 10 11 11 11 11 12 12 11 11 11 11 11 11 12 12 12 13 13 13 13 14 15 15 15
11 10 10 9 10 9 9 9 9 9 9 9 9 9 9 9 9 10 10 11 12 12 12 12 12 12 12 12 11 11 11 12 12 12 13 13 14 14 14 15 15 16 16
11 11 10 10 10 9 9 9 9 9 10 10 9 9 9 9 10 10 11 11 11 12 12 13 12 13 12 12 12 12 12 11 11 13 14 14 15 15 15 15 16 17 17
11 11 11 11 11 10 11 10 10 10 10 10 10 10 10 10 11 12 12 12 12 12 13 13 13 13 14 14 13 12 12 12 13 14 14 15 15 16 17 17 17 18 18
12 12 11 11 11 11 11 11 11 11 11 11 10 11 11 11 12 12 13 13 13 13 13 13 14 14 15 15 14 14 14 14 14 15 15 15 16 17 17 18 19 19 19
12 12 12 11 12 12 12 12 12 13 13 12 12 12 12 12 12 12 13 12 13 14 13 13 14 14 14 14 15 15 15 16 16 15 16 16 17 17 18 19 19 19 19
14 13 12 12 12 12 12 12 13 13 13 13 13 13 13 13 13 13 13 13 13 13 13 13 13 13 14 14 15 15 15 16 16 17 17 18 18 18 18 19 19 19 19
14 13 13 13 13 13 13 13 13 14 13 13 13 13 14 14 13 13 13 13 13 13 12 12 13 14 14 15 15 16 16 16 17 18 18 18 18 18 19 19 19 19 19
15 15 14 14 14 14 14 13 13 13 13 13 13 12 13 13 13 13 13 13 13 13 12 13 13 14 14 15 16 16 17 17 17 18 18 18 18 18 19 19 20 20 20
15 15 15 15 15 15 15 14 14 14 14 13 13 13 12 12 11 12 13 13 13 13 14 14 15 15 15 15 16 16 16 17 17 18 18 18 19 19 19 19 20 21 21
15 15 15 15 16 16 16 15 15 15 14 14 13 13 13 12 11 11 12 12 13 14 15 15 15 16 16 16 17 17 17 18 19 19 19 19 20 20 20 20 20 21 22
16 16 16 17 17 17 17 16 15 15 14 14 13 13 13 12 12 12 12 12 13 13 14 14 15 15 17 17 18 19 19 20 20 20 20 20 21 21 21 21 21 21 22
16 17 17 17 17 17 17 17 16 15 14 13 13 12 12 13 13 13 14 14 14 14 14 15 16 16 17 18 19 20 21 21 21 22 22 22 22 22 22 22 22 22 22
16 17 17 17 17 17 17 17 16 15 14 14 13 14 14 14 14 15 15 15 15 15 16 17 18 18 19 20 21 21 22 23 23 23 23 23 23 23 23 23 22 23 22
17 17 18 17 18 17 17 16 16 16 15 15 15 15 15 15 16 16 16 16 17 17 17 18 19 20 21 22 22 22 22 22 22 23 24 24 24 24 24 24 23 23 23
17 17 18 18 18 18 17 16 16 16 16 16 16 16 15 16 16 17 17 17 18 18 19 20 21 21 22 22 22 22 22 22 23 24 24 24 25 25 25 25 24 24 24
18 18 18 19 18 18 18 17 17 17 17 17 17 17 17 17 17 18 18 18 19 20 20 20 21 21 21 22 22 22 22 23 23 23 24 24 24 25 25 26 26 26 26
Wind_Direction
355 353 350 346 342 335 320 308 294 271 257 251 242 237 238 242 241 242 243 247 251 254 260 259 260 261 264 265 267 265 258 262 263 262 259 257 258 257 258 256 250 250 249
350 352 350 349 350 346 332 315 300 281 266 254 248 243 242 244 244 242 245 249 252 257 260 264 264 264 266 268 269 267 264 260 262 265 262 260 261 263 260 256 252 252 250
350 351 351 351 351 346 335 322 306 286 274 256 248 242 244 247 245 245 247 250 252 255 259 262 264 266 268 267 267 265 261 260 265 268 261 257 259 263 260 255 250 251 251
345 347 348 351 348 341 334 318 302 288 275 259 253 248 248 250 248 254 254 254 254 257 258 258 263 267 267 267 266 263 264 266 268 271 260 258 261 261 260 256 252 251 252
340 338 341 346 344 338 330 316 299 288 279 273 265 261 256 252 253 255 257 259 261 260 257 258 263 267 270 269 266 264 266 267 267 269 264 266 264 264 260 260 257 254 255
333 332 334 337 335 329 325 318 308 296 283 279 273 267 262 255 261 259 257 261 262 259 258 261 266 270 270 268 267 266 267 268 266 263 262 265 265 264 259 262 259 256 256
330 330 328 330 330 326 322 320 312 296 284 278 273 269 265 264 267 262 259 260 262 260 259 261 266 270 269 268 269 268 267 268 267 264 263 265 266 264 260 260 258 256 255
326 325 322 321 322 326 322 316 311 298 287 280 275 271 264 264 261 262 261 262 263 261 261 262 265 267 269 272 275 274 272 272 269 268 267 266 268 268 266 263 264 265 261
326 324 320 314 315 317 320 314 308 301 293 286 282 275 269 262 259 261 262 264 264 263 264 261 263 264 268 269 273 274 272 271 271 268 267 267 268 272 269 268 268 268 262
326 322 322 318 315 314 315 316 310 303 296 291 288 281 271 268 264 260 263 265 264 266 265 264 265 266 266 267 270 272 271 272 271 268 268 269 269 271 270 271 271 270 267
323 321 321 315 314 311 312 312 310 303 301 296 289 281 272 267 265 263 263 263 262 262 263 264 266 265 267 267 270 273 274 272 271 269 268 269 271 272 274 271 270 269 270
321 320 316 313 312 309 307 309 310 306 301 296 289 283 276 273 267 266 264 264 265 265 265 264 266 268 268 270 273 274 274 274 272 273 272 271 272 273 274 273 271 271 272
317 317 316 313 312 309 303 302 304 304 299 295 287 282 277 273 269 270 269 269 268 270 270 266 265 266 267 270 271 273 273 275 274 274 273 273 274 274 274 273 273 272 271
314 316 315 312 313 310 304 300 299 299 297 293 287 281 279 275 272 272 273 271 268 268 273 269 267 269 267 266 269 272 275 276 277 277 275 276 277 277 277 277 276 276 274
311 312 313 310 311 310 308 306 301 299 295 291 285 282 280 278 276 275 276 271 272 273 272 269 269 270 269 268 268 273 275 278 278 278 277 277 278 278 278 278 277 277 274
305 305 307 308 309 313 312 306 302 299 298 294 286 283 280 280 278 275 273 270 273 277 270 269 270 269 267 268 273 276 278 279 279 279 280 278 278 277 277 276 277 276 273
301 303 306 305 305 305 307 307 303 299 297 295 289 283 282 280 277 274 272 270 273 276 277 272 271 272 269 270 273 277 279 282 283 283 283 282 280 277 277 277 277 276 272
295 296 299 301 301 303 303 303 303 303 299 295 290 285 283 279 274 273 274 274 275 277 277 279 279 278 276 274 275 278 279 281 283 285 287 285 281 279 279 278 277 276 275
292 294 295 297 299 301 300 298 299 301 299 294 289 285 284 283 274 275 277 276 275 277 278 280 281 279 277 277 277 279 281 282 284 286 287 285 284 282 280 279 278 277 277
289 291 293 295 296 297 297 297 298 298 294 287 285 283 284 284 280 279 278 277 277 278 279 280 282 279 278 278 278 280 283 285 285 286 287 285 284 283 281 280 280 280 279
289 291 293 293 293 294 295 297 298 297 294 287 285 284 280 283 280 279 280 281 280 281 281 283 282 280 280 280 280 282 283 285 286 286 286 286 285 283 282 280 280 281 283
290 290 292 292 292 292 292 293 294 296 295 288 285 285 283 281 281 280 281 282 284 283 283 287 286 286 285 285 284 284 284 285 286 286 286 286 285 283 284 282 281 281 281
289 292 293 291 290 291 292 291 290 291 290 288 286 281 279 280 282 281 281 281 283 283 285 288 287 287 286 285 284 285 286 287 286 285 286 286 284 283 283 283 280 280 281
288 290 293 294 291 292 291 290 289 289 287 284 285 283 281 282 282 280 281 282 282 284 285 286 286 286 285 285 286 287 287 288 288 287 287 286 284 283 283 282 280 280 280
287 289 291 291 292 293 290 291 288 287 287 284 284 284 284 284 282 279 281 283 284 285 285 286 287 288 288 287 287 289 289 290 290 290 289 288 286 285 284 283 281 280 279
285 288 289 289 290 293 292 290 286 285 285 283 282 283 283 284 282 281 281 283 285 287 288 289 290 291 290 288 289 291 291 291 291 291 290 290 289 287 286 285 283 280 279
Height
5873 5872 5870 5868 5867 5865 5865 5864 5864 5864 5864 5864 5864 5865 5866 5867 5867 5868 5868 5868 5868 5868 5868 5868 5868 5868 5868 5868 5868 5867 5867 5867 5867 5867 5866 5866 5866 5866 5866 5865 5866 5866 5866
5872 5871 5869 5867 5866 5865 5864 5863 5863 5863 5863 5863 5863 5864 5864 5865 5865 5866 5866 5866 5866 5866 5866 5866 5866 5866 5866 5866 5866 5865 5865 5865 5865 5864 5864 5863 5863 5862 5862 5861 5862 5862 5863
5872 5870 5868 5866 5865 5864 5863 5862 5862 5862 5862 5862 5862 5862 5863 5863 5863 5864 5864 5864 5864 5864 5864 5864 5864 5864 5864 5863 5863 5863 5863 5862 5862 5861 5861 5860 5860 5859 5858 5858 5858 5859 5860
5871 5869 5867 5866 5864 5863 5862 5861 5861 5861 5860 5860 5861 5861 5861 5861 5862 5862 5862 5862 5862 5862 5862 5862 5862 5862 5861 5861 5861 5860 5860 5859 5859 5858 5858 5857 5857 5856 5855 5855 5856 5856 5857
5869 5868 5866 5865 5863 5862 5861 5860 5859 5859 5859 5859 5859 5859 5859 5859 5860 5860 5860 5860 5860 5859 5859 5859 5859 5859 5859 5858 5858 5857 5857 5856 5856 5855 5855 5854 5854 5853 5853 5853 5853 5853 5853
5868 5866 5865 5863 5862 5861 5860 5859 5858 5858 5857 5857 5857 5857 5857 5857 5858 5858 5858 5858 5857 5857 5857 5857 5857 5856 5856 5856 5855 5854 5854 5853 5853 5852 5852 5851 5851 5851 5850 5850 5850 5850 5850
5867 5865 5863 5862 5860 5859 5858 5857 5857 5856 5856 5856 5855 5855 5855 5855 5855 5855 5855 5855 5855 5855 5855 5854 5854 5854 5853 5853 5852 5852 5851 5850 5850 5849 5848 5848 5848 5847 5847 5847 5846 5846 5846
5865 5863 5862 5860 5859 5858 5857 5856 5855 5854 5854 5853 5853 5853 5853 5853 5852 5852 5853 5853 5853 5852 5852 5852 5851 5851 5851 5850 5850 5849 5848 5847 5846 5846 5845 5845 5844 5844 5844 5843 5843 5842 5842
5863 5862 5860 5859 5857 5856 5855 5854 5853 5852 5852 5851 5851 5850 5850 5850 5850 5850 5850 5850 5850 5850 5849 5849 5848 5848 5847 5847 5846 5846 5845 5844 5843 5842 5842 5841 5841 5841 5840 5839 5839 5838 5838
5861 5859 5858 5857 5856 5854 5853 5852 5851 5850 5849 5849 5848 5847 5847 5847 5848 5848 5848 5848 5847 5847 5847 5846 5846 5845 5844 5844 5843 5843 5842 5841 5840 5839 5838 5838 5837 5837 5836 5835 5835 5834 5834
5859 5857 5856 5854 5853 5852 5851 5850 5849 5848 5847 5846 5845 5845 5844 5844 5844 5845 5845 5845 5844 5844 5843 5843 5842 5842 5841 5841 5840 5839 5838 5837 5837 5836 5835 5834 5833 5833 5832 5831 5831 5830 5829
5857 5855 5854 5852 5851 5850 5848 5847 5846 5845 5844 5843 5842 5842 5841 5841 5841 5841 5841 5841 5841 5840 5840 5839 5839 5838 5838 5837 5837 5836 5835 5834 5833 5832 5831 5830 5829 5828 5828 5827 5826 5825 5825
5855 5853 5851 5850 5848 5847 5846 5845 5843 5842 5841 5840 5840 5839 5838 5838 5838 5838 5837 5837 5837 5836 5836 5835 5835 5834 5834 5834 5833 5832 5831 5831 5830 5829 5827 5826 5825 5824 5823 5822 5821 5821 5820
5852 5850 5848 5847 5845 5844 5842 5841 5840 5839 5838 5837 5836 5836 5835 5835 5834 5834 5834 5833 5833 5832 5832 5832 5831 5830 5830 5830 5829 5829 5828 5827 5826 5825 5823 5822 5821 5820 5819 5818 5816 5815 5814
5849 5847 5845 5844 5842 5841 5839 5838 5837 5836 5835 5834 5833 5833 5832 5831 5831 5830 5830 5829 5829 5829 5829 5828 5827 5826 5826 5826 5825 5824 5824 5823 5822 5820 5819 5818 5816 5815 5814 5812 5811 5810 5809
5845 5844 5842 5841 5839 5838 5836 5835 5833 5832 5831 5830 5830 5829 5828 5828 5827 5827 5826 5826 5826 5825 5825 5824 5823 5822 5822 5822 5821 5820 5819 5818 5817 5816 5814 5813 5811 5810 5808 5807 5806 5804 5803
5841 5840 5839 5838 5836 5835 5833 5832 5830 5829 5828 5827 5826 5825 5824 5824 5823 5823 5822 5822 5822 5821 5820 5820 5819 5819 5818 5818 5817 5816 5815 5814 5812 5811 5809 5807 5806 5804 5803 5801 5800 5799 5798
5837 5836 5835 5834 5833 5831 5830 5829 5827 5825 5824 5823 5822 5821 5820 5820 5819 5818 5818 5818 5818 5817 5816 5816 5815 5814 5813 5813 5812 5811 5810 5808 5807 5806 5804 5802 5800 5799 5797 5796 5795 5793 5792
5833 5832 5831 5830 5829 5827 5826 5825 5823 5822 5820 5819 5818 5817 5816 5816 5815 5814 5814 5814 5813 5813 5812 5811 5811 5809 5809 5808 5807 5806 5805 5804 5802 5800 5798 5797 5795 5794 5792 5790 5789 5788 5787
5829 5828 5827 5826 5824 5823 5822 5820 5819 5818 5816 5815 5814 5813 5812 5812 5811 5810 5810 5810 5809 5809 5808 5807 5806 5805 5804 5803 5802 5801 5800 5798 5797 5795 5793 5792 5790 5788 5786 5785 5784 5782 5781
5824 5823 5822 5821 5820 5818 5817 5816 5815 5813 5812 5811 5810 5809 5808 5808 5807 5807 5806 5806 5805 5804 5803 5802 5801 5800 5799 5798 5797 5796 5795 5793 5791 5789 5788 5786 5784 5782 5780 5779 5777 5776 5774
5819 5818 5817 5816 5814 5813 5812 5811 5810 5809 5807 5807 5806 5805 5805 5804 5803 5803 5802 5801 5801 5800 5799 5798 5797 5796 5794 5793 5792 5790 5789 5787 5785 5784 5781 5780 5778 5776 5774 5772 5770 5769 5767
5815 5814 5812 5810 5810 5808 5807 5806 5805 5804 5803 5803 5802 5801 5801 5800 5799 5798 5798 5797 5796 5795 5795 5794 5792 5791 5789 5788 5786 5784 5782 5780 5779 5777 5775 5773 5771 5769 5767 5765 5764 5762 5760
5810 5809 5807 5805 5804 5803 5802 5801 5800 5799 5799 5798 5798 5797 5796 5795 5794 5794 5793 5792 5791 5790 5790 5788 5787 5785 5783 5781 5780 5778 5776 5774 5772 5770 5768 5766 5764 5762 5760 5758 5757 5755 5753
5806 5804 5803 5801 5800 5798 5797 5796 5795 5794 5794 5793 5792 5792 5791 5790 5789 5789 5788 5787 5786 5785 5783 5782 5780 5778 5776 5775 5773 5771 5769 5767 5765 5763 5760 5759 5757 5754 5752 5751 5749 5747 5746
5801 5800 5798 5796 5795 5794 5792 5791 5790 5789 5789 5788 5787 5786 5786 5785 5784 5783 5782 5781 5780 5779 5777 5775 5773 5771 5769 5768 5766 5764 5762 5760 5758 5756 5753 5751 5748 5746 5745 5742 5740 5739 5738